EN

Hourly Weather Dziarnowo

Today, 30 October, Friday

Time Temperature Precipitation Wind Pressure Humidity
00:00 +6°C° 0 mm 4 mps 754 mmHg 87%
01:00 +6°C° 0 mm 4 mps 754 mmHg 89%
02:00 +5°C° 0 mm 4 mps 754 mmHg 90%
03:00 +5°C° 0 mm 4 mps 754 mmHg 92%
04:00 +5°C° 0 mm 4 mps 754 mmHg 94%
05:00 +5°C° 0 mm 3 mps 754 mmHg 93%
06:00 +5°C° 0 mm 3 mps 755 mmHg 93%
07:00 +5°C° 0 mm 3 mps 755 mmHg 93%
08:00 +7°C° 0 mm 3 mps 755 mmHg 88%
09:00 +7°C° 0 mm 3 mps 754 mmHg 84%
10:00 +8°C° 0 mm 3 mps 754 mmHg 80%
11:00 +8°C° 0.1 mm 3 mps 754 mmHg 81%
12:00 +9°C° 0.1 mm 3 mps 754 mmHg 82%
13:00 +9°C° 0.1 mm 3 mps 754 mmHg 83%
14:00 +8°C° 0.4 mm 3 mps 753 mmHg 87%
15:00 +8°C° 0.4 mm 2 mps 753 mmHg 90%
16:00 +8°C° 0.4 mm 2 mps 753 mmHg 93%
17:00 +8°C° 0.5 mm 2 mps 753 mmHg 94%
18:00 +9°C° 0.5 mm 1 mps 753 mmHg 96%
19:00 +9°C° 0.5 mm 1 mps 754 mmHg 97%
20:00 +9°C° 0.2 mm 1 mps 754 mmHg 96%
21:00 +9°C° 0.2 mm 1 mps 754 mmHg 96%
22:00 +9°C° 0.2 mm 1 mps 755 mmHg 96%
23:00 +9°C° 0 mm 1 mps 755 mmHg 96%

Tomorrow, 31 October, Saturday

Time Temperature Precipitation Wind Pressure Humidity
00:00 +9°C° 0 mm 1 mps 756 mmHg 96%
01:00 +8°C° 0 mm 0 mps 756 mmHg 96%
02:00 +8°C° 0 mm 0 mps 757 mmHg 96%
03:00 +8°C° 0 mm 0 mps 757 mmHg 96%
04:00 +7°C° 0 mm 0 mps 757 mmHg 95%
05:00 +8°C° 0 mm 1 mps 758 mmHg 95%
06:00 +8°C° 0 mm 1 mps 758 mmHg 95%
07:00 +8°C° 0 mm 1 mps 759 mmHg 95%
08:00 +9°C° 0 mm 1 mps 759 mmHg 91%
09:00 +10°C° 0 mm 1 mps 759 mmHg 87%
10:00 +11°C° 0 mm 1 mps 760 mmHg 83%
11:00 +12°C° 0 mm 1 mps 760 mmHg 80%
12:00 +12°C° 0 mm 1 mps 760 mmHg 76%
13:00 +13°C° 0 mm 1 mps 760 mmHg 73%
14:00 +12°C° 0 mm 1 mps 760 mmHg 76%
15:00 +12°C° 0 mm 1 mps 760 mmHg 79%
16:00 +11°C° 0 mm 1 mps 759 mmHg 82%
17:00 +10°C° 0 mm 2 mps 759 mmHg 83%
18:00 +9°C° 0 mm 2 mps 760 mmHg 85%
19:00 +8°C° 0 mm 3 mps 760 mmHg 86%
20:00 +8°C° 0 mm 3 mps 760 mmHg 86%
21:00 +8°C° 0 mm 3 mps 759 mmHg 87%
22:00 +7°C° 0 mm 3 mps 759 mmHg 87%
23:00 +7°C° 0 mm 3 mps 759 mmHg 87%

Day after tomorrow, 1 November, Sunday

Time Temperature Precipitation Wind Pressure Humidity
00:00 +6°C° 0 mm 4 mps 759 mmHg 87%
01:00 +6°C° 0 mm 4 mps 759 mmHg 86%
02:00 +6°C° 0 mm 4 mps 758 mmHg 86%
03:00 +6°C° 0 mm 4 mps 758 mmHg 86%
04:00 +6°C° 0 mm 4 mps 757 mmHg 85%
05:00 +6°C° 0 mm 4 mps 757 mmHg 85%
06:00 +6°C° 0 mm 4 mps 757 mmHg 85%
07:00 +6°C° 0 mm 5 mps 757 mmHg 85%
08:00 +7°C° 0 mm 5 mps 756 mmHg 80%
09:00 +8°C° 0 mm 5 mps 756 mmHg 76%
10:00 +9°C° 0 mm 5 mps 756 mmHg 71%
11:00 +10°C° 0 mm 5 mps 755 mmHg 71%
12:00 +10°C° 0 mm 5 mps 755 mmHg 70%
13:00 +12°C° 0 mm 5 mps 754 mmHg 70%
14:00 +12°C° 0 mm 5 mps 754 mmHg 74%
15:00 +12°C° 0 mm 4 mps 753 mmHg 79%
16:00 +11°C° 0 mm 3 mps 753 mmHg 83%
17:00 +11°C° 0.6 mm 4 mps 753 mmHg 87%
18:00 +11°C° 0.6 mm 4 mps 752 mmHg 90%
19:00 +10°C° 0.6 mm 5 mps 752 mmHg 94%
20:00 +10°C° 0.1 mm 5 mps 752 mmHg 93%
21:00 +12°C° 0.1 mm 5 mps 752 mmHg 93%
22:00 +12°C° 0.1 mm 5 mps 752 mmHg 93%
23:00 +12°C° 0 mm 5 mps 751 mmHg 92%

2 November, Monday

Time Temperature Precipitation Wind Pressure Humidity
00:00 +10°C° 0 mm 5 mps 751 mmHg 91%
01:00 +10°C° 0 mm 5 mps 750 mmHg 91%
02:00 +12°C° 0.1 mm 5 mps 750 mmHg 89%
03:00 +11°C° 0.1 mm 6 mps 750 mmHg 88%
04:00 +11°C° 0.1 mm 6 mps 749 mmHg 87%
05:00 +11°C° 1.1 mm 6 mps 749 mmHg 88%
06:00 +11°C° 1.1 mm 6 mps 749 mmHg 90%
07:00 +13°C° 1.1 mm 6 mps 749 mmHg 91%
08:00 +13°C° 0.6 mm 6 mps 749 mmHg 92%
09:00 +13°C° 0.6 mm 6 mps 749 mmHg 92%
10:00 +14°C° 0.6 mm 6 mps 749 mmHg 93%
11:00 +14°C° 0 mm 6 mps 749 mmHg 90%
12:00 +15°C° 0 mm 6 mps 749 mmHg 88%
13:00 +15°C° 0 mm 6 mps 749 mmHg 86%
14:00 +15°C° 0 mm 6 mps 749 mmHg 85%
15:00 +15°C° 0 mm 6 mps 749 mmHg 85%
16:00 +15°C° 0 mm 5 mps 749 mmHg 85%
17:00 +15°C° 0 mm 6 mps 749 mmHg 84%
18:00 +15°C° 0 mm 6 mps 749 mmHg 84%
19:00 +16°C° 0 mm 6 mps 750 mmHg 84%
20:00 +15°C° 0 mm 6 mps 750 mmHg 84%
21:00 +15°C° 0 mm 6 mps 750 mmHg 84%
22:00 +15°C° 0 mm 6 mps 750 mmHg 84%
23:00 +15°C° 0 mm 6 mps 750 mmHg 83%

3 November, Tuesday

Time Temperature Precipitation Wind Pressure Humidity
00:00 +15°C° 0 mm 6 mps 750 mmHg 81%
01:00 +15°C° 0 mm 7 mps 750 mmHg 80%
02:00 +15°C° 0 mm 7 mps 750 mmHg 82%
03:00 +15°C° 0 mm 6 mps 751 mmHg 83%
04:00 +15°C° 0 mm 6 mps 751 mmHg 85%
05:00 +14°C° 0 mm 6 mps 752 mmHg 83%
06:00 +14°C° 0 mm 5 mps 753 mmHg 81%
07:00 +14°C° 0 mm 5 mps 754 mmHg 79%
08:00 +14°C° 0 mm 5 mps 755 mmHg 76%
09:00 +13°C° 0 mm 5 mps 755 mmHg 72%
10:00 +13°C° 0 mm 5 mps 756 mmHg 69%
11:00 +13°C° 0 mm 4 mps 757 mmHg 65%
12:00 +13°C° 0 mm 3 mps 757 mmHg 61%
13:00 +13°C° 0 mm 3 mps 758 mmHg 58%
14:00 +14°C° 0 mm 2 mps 758 mmHg 60%
15:00 +13°C° 0 mm 1 mps 758 mmHg 63%
16:00 +12°C° 0 mm 1 mps 758 mmHg 65%
17:00 +12°C° 0 mm 1 mps 758 mmHg 66%
18:00 +12°C° 0 mm 1 mps 758 mmHg 67%
19:00 +12°C° 0 mm 1 mps 758 mmHg 68%
20:00 +12°C° 0 mm 2 mps 758 mmHg 71%
21:00 +12°C° 0 mm 2 mps 757 mmHg 73%
22:00 +11°C° 0 mm 3 mps 757 mmHg 76%
23:00 +11°C° 0.5 mm 4 mps 757 mmHg 80%

4 November, Wednesday

Time Temperature Precipitation Wind Pressure Humidity
00:00 +10°C° 0.5 mm 4 mps 757 mmHg 84%
01:00 +10°C° 0.5 mm 4 mps 757 mmHg 89%
02:00 +11°C° 1 mm 4 mps 757 mmHg 90%
03:00 +11°C° 1 mm 4 mps 756 mmHg 91%
04:00 +11°C° 1 mm 4 mps 756 mmHg 92%
05:00 +10°C° 0.1 mm 4 mps 757 mmHg 89%
06:00 +10°C° 0.1 mm 4 mps 757 mmHg 86%
07:00 +8°C° 0.1 mm 4 mps 757 mmHg 83%
08:00 +8°C° 0 mm 4 mps 758 mmHg 80%
09:00 +10°C° 0 mm 4 mps 758 mmHg 77%
10:00 +9°C° 0 mm 5 mps 759 mmHg 75%
11:00 +10°C° 0 mm 4 mps 759 mmHg 72%
12:00 +11°C° 0 mm 4 mps 759 mmHg 69%
13:00 +11°C° 0 mm 4 mps 760 mmHg 66%
14:00 +10°C° 0 mm 4 mps 760 mmHg 69%
15:00 +10°C° 0 mm 3 mps 760 mmHg 72%
16:00 +9°C° 0 mm 2 mps 760 mmHg 75%
17:00 +8°C° 0 mm 2 mps 761 mmHg 78%
18:00 +8°C° 0 mm 2 mps 761 mmHg 80%
19:00 +7°C° 0 mm 3 mps 762 mmHg 82%
20:00 +8°C° 0 mm 3 mps 762 mmHg 81%
21:00 +8°C° 0 mm 2 mps 762 mmHg 80%
22:00 +8°C° 0 mm 2 mps 763 mmHg 79%
23:00 +8°C° 0 mm 3 mps 763 mmHg 79%
Show more